User: anonymous   Login
Location: Unspecified
(0.0000°N, 0.0000°E)
Time: 14:53:30
(UTC+00:00)
Language:

GEOEYE 1 - Orbit

View from above orbital plane
View from above orbital plane
View from above satellite
View from above satellite

Ground track
Ground track

The orbit data is extracted from the following two-line orbital elements,

1 33331U 08042A   16145.94608745 -.00000041  00000-0  12741-5 0  9993
2 33331  98.0952 220.2467 0010638  52.3679 307.8486 14.64184653412297
Epoch (UTC): 24 May 2016 22:42:21
Eccentricity: 0.0010638
inclination: 98.0952°
perigee height: 672 km
apogee height: 687 km
right ascension of ascending node: 220.2467°
argument of perigee: 52.3679°
revolutions per day: 14.64184653
mean anomaly at epoch: 307.8486°
orbit number at epoch: 41229

The dashed part of the orbit path shows where the satellite is in the earth's shadow,  

DLR